Time,TemperatureF,DewpointF,PressureIn,WindDirection,WindDirectionDegrees,WindSpeedMPH,WindSpeedGustMPH,Humidity,HourlyPrecipIn,Conditions,Clouds,dailyrainin,SoftwareType,DateUTC
2013-09-04 00:05:00,67.7,63.0,29.88,WSW,237,0.0,-999.0,84,-99.99,,,0.01,weatherlink.com 1.10,2013-09-04 07:05:00,
2013-09-04 00:20:00,67.3,62.0,29.88,WSW,237,0.0,-999.0,84,-99.99,,,0.01,weatherlink.com 1.10,2013-09-04 07:20:00,
2013-09-04 00:35:00,67.3,63.0,29.88,WSW,237,0.0,-999.0,85,-99.99,,,0.01,weatherlink.com 1.10,2013-09-04 07:35:00,
2013-09-04 00:50:00,67.3,63.0,29.88,WSW,237,0.0,-999.0,86,-99.99,,,0.01,weatherlink.com 1.10,2013-09-04 07:50:00,
2013-09-04 01:05:00,67.1,63.0,29.88,WSW,237,0.0,-999.0,85,-99.99,,,0.01,weatherlink.com 1.10,2013-09-04 08:05:00,
2013-09-04 01:20:00,67.0,62.0,29.88,WSW,237,0.0,-999.0,85,-99.99,,,0.01,weatherlink.com 1.10,2013-09-04 08:20:00,
2013-09-04 01:35:00,66.6,62.0,29.88,WSW,237,0.0,-999.0,85,-99.99,,,0.01,weatherlink.com 1.10,2013-09-04 08:35:00,
2013-09-04 01:50:00,66.2,62.0,29.88,WSW,237,0.0,-999.0,85,-99.99,,,0.01,weatherlink.com 1.10,2013-09-04 08:50:00,
2013-09-04 02:05:00,65.7,62.0,29.88,WSW,237,0.0,-999.0,86,-99.99,,,0.01,weatherlink.com 1.10,2013-09-04 09:05:00,
2013-09-04 02:20:00,65.5,61.0,29.89,WSW,237,0.0,-999.0,86,-99.99,,,0.01,weatherlink.com 1.10,2013-09-04 09:20:00,
2013-09-04 02:36:00,65.3,61.0,29.90,WSW,237,0.0,-999.0,86,-99.99,,,0.01,weatherlink.com 1.10,2013-09-04 09:36:00,
2013-09-04 02:51:00,65.0,61.0,29.90,WSW,237,0.0,-999.0,88,-99.99,,,0.01,weatherlink.com 1.10,2013-09-04 09:51:00,
2013-09-04 03:06:00,64.9,61.0,29.90,WSW,237,0.0,-999.0,87,-99.99,,,0.01,weatherlink.com 1.10,2013-09-04 10:06:00,
2013-09-04 03:21:00,64.7,61.0,29.90,WSW,237,1.0,-999.0,87,-99.99,,,0.01,weatherlink.com 1.10,2013-09-04 10:21:00,
2013-09-04 03:36:00,64.7,61.0,29.90,WSW,237,0.0,-999.0,87,-99.99,,,0.01,weatherlink.com 1.10,2013-09-04 10:36:00,
2013-09-04 03:51:00,64.7,61.0,29.90,WSW,237,0.0,-999.0,88,-99.99,,,0.01,weatherlink.com 1.10,2013-09-04 10:51:00,
2013-09-04 04:06:00,64.5,61.0,29.91,WSW,237,0.0,-999.0,88,-99.99,,,0.01,weatherlink.com 1.10,2013-09-04 11:06:00,
2013-09-04 04:21:00,64.2,61.0,29.91,WSW,237,0.0,-999.0,88,-99.99,,,0.01,weatherlink.com 1.10,2013-09-04 11:21:00,
2013-09-04 04:36:00,64.1,61.0,29.91,WSW,237,0.0,-999.0,88,-99.99,,,0.01,weatherlink.com 1.10,2013-09-04 11:36:00,
2013-09-04 04:51:00,63.8,60.0,29.92,WSW,238,0.0,-999.0,88,-99.99,,,0.01,weatherlink.com 1.10,2013-09-04 11:51:00,
2013-09-04 05:06:00,63.8,60.0,29.92,WSW,237,0.0,-999.0,88,-99.99,,,0.01,weatherlink.com 1.10,2013-09-04 12:06:00,
2013-09-04 05:21:00,63.6,60.0,29.92,WSW,237,0.0,-999.0,88,-99.99,,,0.01,weatherlink.com 1.10,2013-09-04 12:21:00,
2013-09-04 05:36:00,63.6,60.0,29.93,WSW,237,0.0,-999.0,88,-99.99,,,0.01,weatherlink.com 1.10,2013-09-04 12:36:00,
2013-09-04 05:51:00,63.4,60.0,29.93,WSW,237,1.0,-999.0,88,-99.99,,,0.01,weatherlink.com 1.10,2013-09-04 12:51:00,
2013-09-04 06:06:00,63.7,60.0,29.93,WSW,237,0.0,-999.0,88,-99.99,,,0.01,weatherlink.com 1.10,2013-09-04 13:06:00,
2013-09-04 06:21:00,63.5,60.0,29.93,WSW,237,0.0,-999.0,87,-99.99,,,0.01,weatherlink.com 1.10,2013-09-04 13:21:00,
2013-09-04 06:36:00,63.3,60.0,29.93,WSW,237,0.0,-999.0,88,-99.99,,,0.01,weatherlink.com 1.10,2013-09-04 13:36:00,
2013-09-04 06:51:00,63.1,60.0,29.93,WSW,237,0.0,-999.0,88,-99.99,,,0.01,weatherlink.com 1.10,2013-09-04 13:51:00,
2013-09-04 07:06:00,63.1,60.0,29.94,WSW,237,0.0,-999.0,89,-99.99,,,0.01,weatherlink.com 1.10,2013-09-04 14:06:00,
2013-09-04 07:21:00,63.3,60.0,29.94,WSW,237,0.0,-999.0,88,-99.99,,,0.01,weatherlink.com 1.10,2013-09-04 14:21:00,
2013-09-04 07:36:00,65.0,61.0,29.94,WSW,238,0.0,-999.0,86,-99.99,,,0.01,weatherlink.com 1.10,2013-09-04 14:36:00,
2013-09-04 07:51:00,66.3,61.0,29.95,WSW,238,1.0,-999.0,82,-99.99,,,0.01,weatherlink.com 1.10,2013-09-04 14:51:00,
2013-09-04 08:06:00,67.6,61.0,29.94,WSW,237,0.0,-999.0,79,-99.99,,,0.01,weatherlink.com 1.10,2013-09-04 15:06:00,
2013-09-04 08:21:00,68.5,61.0,29.94,WSW,237,0.0,-999.0,77,-99.99,,,0.01,weatherlink.com 1.10,2013-09-04 15:21:00,
2013-09-04 08:36:00,69.2,61.0,29.94,WSW,238,0.0,-999.0,75,-99.99,,,0.01,weatherlink.com 1.10,2013-09-04 15:36:00,
2013-09-04 08:51:00,71.2,61.0,29.94,WSW,237,0.0,-999.0,70,-99.99,,,0.01,weatherlink.com 1.10,2013-09-04 15:51:00,
2013-09-04 09:06:00,73.4,61.0,29.93,WSW,237,0.0,-999.0,66,-99.99,,,0.01,weatherlink.com 1.10,2013-09-04 16:06:00,
2013-09-04 09:21:00,74.8,62.0,29.93,WSW,238,0.0,-999.0,65,-99.99,,,0.01,weatherlink.com 1.10,2013-09-04 16:21:00,
2013-09-04 09:36:00,76.2,63.0,29.93,WSW,237,0.0,-999.0,63,-99.99,,,0.01,weatherlink.com 1.10,2013-09-04 16:36:00,
2013-09-04 09:51:00,77.9,62.0,29.93,ESE,107,1.0,-999.0,58,-99.99,,,0.01,weatherlink.com 1.10,2013-09-04 16:51:00,
2013-09-04 10:06:00,79.4,62.0,29.92,ESE,107,0.0,-999.0,56,-99.99,,,0.01,weatherlink.com 1.10,2013-09-04 17:06:00,
2013-09-04 10:21:00,79.8,63.0,29.92,ESE,117,1.0,-999.0,56,-99.99,,,0.01,weatherlink.com 1.10,2013-09-04 17:21:00,
2013-09-04 10:36:00,81.7,62.0,29.91,ESE,121,0.0,-999.0,52,-99.99,,,0.01,weatherlink.com 1.10,2013-09-04 17:36:00,
2013-09-04 10:51:00,83.1,63.0,29.90,East,90,0.0,-999.0,50,-99.99,,,0.01,weatherlink.com 1.10,2013-09-04 17:51:00,
2013-09-04 11:06:00,84.9,61.0,29.90,ENE,74,1.0,-999.0,45,-99.99,,,0.01,weatherlink.com 1.10,2013-09-04 18:06:00,
2013-09-04 11:21:00,86.0,61.0,29.89,ENE,71,1.0,-999.0,43,-99.99,,,0.01,weatherlink.com 1.10,2013-09-04 18:21:00,
2013-09-04 11:37:00,86.9,61.0,29.88,West,271,0.0,-999.0,42,-99.99,,,0.01,weatherlink.com 1.10,2013-09-04 18:37:00,
2013-09-04 11:52:00,88.3,61.0,29.88,WSW,238,0.0,-999.0,40,-99.99,,,0.01,weatherlink.com 1.10,2013-09-04 18:52:00,
2013-09-04 12:07:00,89.8,61.0,29.87,South,180,0.0,-999.0,38,-99.99,,,0.01,weatherlink.com 1.10,2013-09-04 19:07:00,
2013-09-04 12:22:00,90.4,62.0,29.86,SSW,207,3.0,-999.0,39,-99.99,,,0.01,weatherlink.com 1.10,2013-09-04 19:22:00,
2013-09-04 12:37:00,92.4,60.0,29.86,SSW,207,0.0,-999.0,34,-99.99,,,0.01,weatherlink.com 1.10,2013-09-04 19:37:00,
2013-09-04 12:52:00,93.5,58.0,29.85,SSE,167,4.0,-999.0,30,-99.99,,,0.01,weatherlink.com 1.10,2013-09-04 19:52:00,
2013-09-04 13:07:00,93.7,59.0,29.85,SE,140,1.0,-999.0,31,-99.99,,,0.01,weatherlink.com 1.10,2013-09-04 20:07:00,
2013-09-04 13:22:00,96.1,57.0,29.84,SE,137,1.0,-999.0,27,-99.99,,,0.01,weatherlink.com 1.10,2013-09-04 20:22:00,
2013-09-04 13:37:00,96.2,56.0,29.83,West,273,3.0,-999.0,26,-99.99,,,0.01,weatherlink.com 1.10,2013-09-04 20:37:00,
2013-09-04 13:52:00,96.8,57.0,29.83,SSW,203,3.0,-999.0,26,-99.99,,,0.01,weatherlink.com 1.10,2013-09-04 20:52:00,
2013-09-04 14:07:00,97.5,57.0,29.82,SSW,193,1.0,-999.0,26,-99.99,,,0.01,weatherlink.com 1.10,2013-09-04 21:07:00,
2013-09-04 14:22:00,97.5,57.0,29.82,South,190,5.0,-999.0,26,-99.99,,,0.01,weatherlink.com 1.10,2013-09-04 21:22:00,
2013-09-04 14:37:00,98.8,56.0,29.82,West,259,2.0,-999.0,24,-99.99,,,0.01,weatherlink.com 1.10,2013-09-04 21:37:00,
2013-09-04 14:52:00,97.4,57.0,29.82,WSW,258,1.0,-999.0,26,-99.99,,,0.01,weatherlink.com 1.10,2013-09-04 21:52:00,
2013-09-04 15:38:00,95.2,58.0,29.81,ESE,105,1.0,-999.0,29,-99.99,,,0.01,weatherlink.com 1.10,2013-09-04 22:38:00,
2013-09-04 15:53:00,95.6,59.0,29.80,SW,214,3.0,-999.0,29,-99.99,,,0.01,weatherlink.com 1.10,2013-09-04 22:53:00,
2013-09-04 16:08:00,96.0,58.0,29.80,West,278,2.0,-999.0,28,-99.99,,,0.01,weatherlink.com 1.10,2013-09-04 23:08:00,
2013-09-04 16:23:00,96.9,58.0,29.79,West,271,5.0,-999.0,27,-99.99,,,0.01,weatherlink.com 1.10,2013-09-04 23:23:00,
2013-09-04 16:38:00,96.8,59.0,29.78,SSW,209,1.0,-999.0,28,-99.99,,,0.01,weatherlink.com 1.10,2013-09-04 23:38:00,
2013-09-04 16:53:00,96.3,58.0,29.78,West,277,1.0,-999.0,28,-99.99,,,0.01,weatherlink.com 1.10,2013-09-04 23:53:00,
2013-09-04 17:08:00,95.5,59.0,29.77,South,180,1.0,-999.0,29,-99.99,,,0.01,weatherlink.com 1.10,2013-09-05 00:08:00,
2013-09-04 17:23:00,94.9,60.0,29.77,South,184,2.0,-999.0,31,-99.99,,,0.01,weatherlink.com 1.10,2013-09-05 00:23:00,
2013-09-04 17:38:00,93.6,60.0,29.77,South,180,3.0,-999.0,32,-99.99,,,0.01,weatherlink.com 1.10,2013-09-05 00:38:00,
2013-09-04 17:53:00,92.0,60.0,29.77,South,180,0.0,-999.0,34,-99.99,,,0.01,weatherlink.com 1.10,2013-09-05 00:53:00,
2013-09-04 18:08:00,89.9,60.0,29.76,South,180,0.0,-999.0,36,-99.99,,,0.01,weatherlink.com 1.10,2013-09-05 01:08:00,
2013-09-04 18:23:00,89.5,61.0,29.75,South,180,0.0,-999.0,39,-99.99,,,0.01,weatherlink.com 1.10,2013-09-05 01:23:00,
2013-09-04 18:38:00,87.4,61.0,29.75,South,180,0.0,-999.0,41,-99.99,,,0.01,weatherlink.com 1.10,2013-09-05 01:38:00,
2013-09-04 18:53:00,86.1,60.0,29.75,South,180,0.0,-999.0,42,-99.99,,,0.01,weatherlink.com 1.10,2013-09-05 01:53:00,
2013-09-04 19:08:00,85.0,61.0,29.75,South,180,0.0,-999.0,44,-99.99,,,0.01,weatherlink.com 1.10,2013-09-05 02:08:00,
2013-09-04 19:23:00,83.6,61.0,29.76,South,180,0.0,-999.0,46,-99.99,,,0.01,weatherlink.com 1.10,2013-09-05 02:23:00,
2013-09-04 19:38:00,82.1,61.0,29.78,South,180,0.0,-999.0,49,-99.99,,,0.00,weatherlink.com 1.10,2013-09-05 02:38:00,
2013-09-04 19:53:00,81.9,61.0,29.78,South,180,0.0,-999.0,49,-99.99,,,0.00,weatherlink.com 1.10,2013-09-05 02:53:00,
2013-09-04 20:08:00,81.1,61.0,29.77,South,180,0.0,-999.0,51,-99.99,,,0.00,weatherlink.com 1.10,2013-09-05 03:08:00,
2013-09-04 20:23:00,80.1,61.0,29.79,South,180,0.0,-999.0,53,-99.99,,,0.00,weatherlink.com 1.10,2013-09-05 03:23:00,
2013-09-04 20:38:00,79.5,61.0,29.79,South,180,0.0,-999.0,54,-99.99,,,0.00,weatherlink.com 1.10,2013-09-05 03:38:00,
2013-09-04 20:53:00,79.1,61.0,29.80,South,180,0.0,-999.0,55,-99.99,,,0.00,weatherlink.com 1.10,2013-09-05 03:53:00,
2013-09-04 21:08:00,78.9,61.0,29.81,South,177,0.0,-999.0,54,-99.99,,,0.00,weatherlink.com 1.10,2013-09-05 04:08:00,
2013-09-04 21:23:00,78.5,61.0,29.81,South,180,0.0,-999.0,55,-99.99,,,0.00,weatherlink.com 1.10,2013-09-05 04:23:00,
2013-09-04 21:38:00,78.7,60.0,29.82,South,180,0.0,-999.0,53,-99.99,,,0.00,weatherlink.com 1.10,2013-09-05 04:38:00,
2013-09-04 21:54:00,78.3,60.0,29.81,South,180,0.0,-999.0,54,-99.99,,,0.00,weatherlink.com 1.10,2013-09-05 04:54:00,
2013-09-04 22:09:00,77.7,60.0,29.81,South,180,0.0,-999.0,54,-99.99,,,0.00,weatherlink.com 1.10,2013-09-05 05:09:00,
2013-09-04 22:24:00,76.6,60.0,29.82,SSE,148,0.0,-999.0,57,-99.99,,,0.00,weatherlink.com 1.10,2013-09-05 05:24:00,
2013-09-04 22:39:00,75.6,61.0,29.82,SSE,148,0.0,-999.0,61,-99.99,,,0.00,weatherlink.com 1.10,2013-09-05 05:39:00,
2013-09-04 22:54:00,74.5,61.0,29.82,SSE,148,0.0,-999.0,64,-99.99,,,0.00,weatherlink.com 1.10,2013-09-05 05:54:00,
2013-09-04 23:09:00,73.4,63.0,29.83,SSE,148,0.0,-999.0,71,-99.99,,,0.00,weatherlink.com 1.10,2013-09-05 06:09:00,
2013-09-04 23:24:00,72.8,62.0,29.82,SSE,148,0.0,-999.0,70,-99.99,,,0.00,weatherlink.com 1.10,2013-09-05 06:24:00,
2013-09-04 23:39:00,72.0,63.0,29.83,SSE,148,0.0,-999.0,74,-99.99,,,0.00,weatherlink.com 1.10,2013-09-05 06:39:00,
2013-09-04 23:54:00,71.3,65.0,29.83,South,180,0.0,-999.0,80,-99.99,,,0.00,weatherlink.com 1.10,2013-09-05 06:54:00,